User: anonymous   Login
Location: Cicognara
(44.9500°N, 10.4667°E)
Time: 06:03:04
(UTC+00:00)
Language:

Cosmos 1892 - Orbit

View from above orbital plane
View from above orbital plane
View from above satellite
View from above satellite

Ground track
Ground track

The orbit data is extracted from the following two-line orbital elements,

1 18421U 87088A   21298.02490864  .00000928  00000-0  44034-4 0  9990
2 18421  82.4982 143.8249 0015575 142.6532 217.5788 15.17921837859552
Epoch (UTC): 25 October 2021 00:35:52
Eccentricity: 0.0015575
inclination: 82.4982°
perigee height: 501 km
apogee height: 523 km
right ascension of ascending node: 143.8249°
argument of perigee: 142.6532°
revolutions per day: 15.17921837
mean anomaly at epoch: 217.5788°
orbit number at epoch: 85955

The dashed part of the orbit path shows where the satellite is in the earth's shadow,  

DLR